Location: Cheyres
(46.8153°N, 6.7877°E)
Time: 11:54:38
(UTC+00:00)

Gbstr 26 Del rocket - Pass Details

Date: 24 September 2021
Orbit: 492 x 1263 km, 51.8° (Epoch: 18 October)

Event Time Altitude Azimuth Distance (km) Brightness Sun altitude
Exits shadow 02:57:08 37° 283° (WNW) 1,769 4.9 -24.7°
Maximum altitude 03:00:19 65° 217° (SW) 1,258 4.2 -24.2°
Drops below altitude 10° 03:07:08 10° 137° (SE) 2,806 6.6 -23.2°
Sets 03:09:35 0° 134° (SE) 3,648 7.3 -22.8°
